Location: ???????
(55.3754°N, 39.3545°E)
Time: 21:50:29
(UTC+00:00)

Cosmos 304 Rocket - Pass Details

Date: 14 April 2026
Orbit: 668 x 676 km, 74.0° (Epoch: 11 May)

Event Time Altitude Azimuth Distance (km) Brightness Sun altitude
Rises 21:05:30 0° 329° (NNW) 3,034 8.1 -24.9°
Reaches altitude 10° 21:07:51 10° 324° (NW) 2,117 7.0 -24.9°
Enters shadow 21:12:04 46° 265° (W) 909 4.3 -24.9°
